Weather in Jalapa

Mexico     17°43′05″N   92°48′40″W
temp.,
°C
wind,
m/s
gust,
m/s
humid.,
%
clouds,
%
prec.,
mm/h
press.,
hPa
HPBL,
m
4 december, sat
sat400:00+21e12955 0.9 101623
03:00+21se1295100 0.0 101433
06:00+21ssw00941 0.0 101511
09:00+24e348720 0.0 1017439
12:00+27e567520 0.0 1015984
15:00+28ene57750 0.0 1013907
18:00+24ene36840 0.0 1015105
21:00+22ne23893 0.3 101766
5 december, sun
sun500:00+21e36941 0.3 1016146
03:00+21e22960 0.0 101547
06:00+20ese11960 0.0 101535
09:00+24ese128721 0.0 1017357
12:00+27e457572 0.0 10141049
15:00+28e467716 0.1 1011958
18:00+24ene37860 0.1 1012152
21:00+23e22910 0.0 101440
6 december, mon
mon600:00+21ene35910 0.0 1015124
03:00+21e11910 0.0 101423
06:00+20sse11930 0.0 101413
09:00+24wnw11836 0.0 1016277
12:00+27ene11710 0.0 1014727
15:00+28e22720 0.0 1011803
18:00+25se11850 0.0 101211
21:00+24sse11910 0.0 101311
7 december, tue
tue700:00+22ne22930 0.0 101330
03:00+21ese11950 0.0 101227
06:00+21s00967 0.0 101212
09:00+24wsw118837 0.0 1014329
12:00+27nne127337 0.0 1012954
15:00+28sse126932 0.0 1009932
18:00+25sw22820 0.1 101016
21:00+23sse11890 0.0 101111
8 december, wed
wed800:00+22ne01910 0.0 101111
03:00+21ssw11935 0.0 101011
06:00+21sw11940 0.0 101113
09:00+24s118614 0.0 1013277
12:00+28ene11756 0.0 1012655
15:00+29e2273100 0.0 1010804
18:00+25ese33865 0.0 101042
21:00+24se33894 0.0 101143